• In Latvia
  • List of Countries
  • For 7 days
  • Water Temperature
  • Satellite Maps
  • Weather Map
  • Weather Widgets
  • user-avatar
    Login

    Hourly Weather Andora

    Today, 18 February, Sunday

    Time Temperature Precipitation Wind Pressure Humidity
    00:00 -6°C° 0 mm 3 mps 625 mmHg 86%
    01:00 -6°C° 0 mm 3 mps 624 mmHg 86%
    02:00 -6°C° 0 mm 3 mps 624 mmHg 85%
    03:00 -7°C° 0 mm 3 mps 624 mmHg 85%
    04:00 -7°C° 0 mm 3 mps 624 mmHg 84%
    05:00 -7°C° 0 mm 3 mps 624 mmHg 83%
    06:00 -8°C° 0 mm 3 mps 624 mmHg 82%
    07:00 -6°C° 0 mm 3 mps 624 mmHg 77%
    08:00 -4°C° 0 mm 2 mps 625 mmHg 72%
    09:00 -2°C° 0 mm 2 mps 625 mmHg 67%
    10:00 -1°C° 0 mm 2 mps 626 mmHg 63%
    11:00 +1°C° 0 mm 2 mps 626 mmHg 60%
    12:00 +2°C° 0 mm 3 mps 626 mmHg 56%
    13:00 +3°C° 0 mm 2 mps 626 mmHg 59%
    14:00 +2°C° 0 mm 2 mps 625 mmHg 62%
    15:00 +2°C° 0 mm 2 mps 625 mmHg 64%
    16:00 +1°C° 0.2 mm 2 mps 624 mmHg 70%
    17:00 -1°C° 0.2 mm 2 mps 624 mmHg 77%
    18:00 0°C° 0.2 mm 1 mps 623 mmHg 83%
    19:00 0°C° 0.4 mm 1 mps 623 mmHg 84%
    20:00 0°C° 0.4 mm 1 mps 623 mmHg 86%
    21:00 0°C° 0.4 mm 1 mps 623 mmHg 87%
    22:00 0°C° 0.4 mm 1 mps 623 mmHg 88%
    23:00 0°C° 0.4 mm 1 mps 623 mmHg 89%

    Tomorrow, 19 February, Monday

    Time Temperature Precipitation Wind Pressure Humidity
    00:00 0°C° 0.4 mm 1 mps 622 mmHg 89%
    01:00 0°C° 0.1 mm 1 mps 622 mmHg 91%
    02:00 -1°C° 0.1 mm 1 mps 622 mmHg 92%
    03:00 -1°C° 0.1 mm 1 mps 621 mmHg 93%
    04:00 -1°C° 0 mm 1 mps 621 mmHg 93%
    05:00 -1°C° 0 mm 1 mps 621 mmHg 92%
    06:00 -3°C° 0 mm 2 mps 621 mmHg 92%
    07:00 -2°C° 0 mm 2 mps 622 mmHg 89%
    08:00 0°C° 0 mm 1 mps 622 mmHg 85%
    09:00 +1°C° 0 mm 1 mps 623 mmHg 82%
    10:00 +1°C° 0 mm 2 mps 623 mmHg 78%
    11:00 +2°C° 0 mm 2 mps 623 mmHg 75%
    12:00 +3°C° 0 mm 2 mps 623 mmHg 71%
    13:00 +3°C° 0 mm 2 mps 623 mmHg 71%
    14:00 +3°C° 0 mm 2 mps 623 mmHg 72%
    15:00 +3°C° 0 mm 2 mps 622 mmHg 72%
    16:00 +1°C° 0.1 mm 2 mps 622 mmHg 78%
    17:00 -1°C° 0.1 mm 2 mps 621 mmHg 84%
    18:00 -3°C° 0.1 mm 2 mps 621 mmHg 89%
    19:00 -3°C° 0.1 mm 2 mps 621 mmHg 90%
    20:00 -3°C° 0.1 mm 2 mps 621 mmHg 90%
    21:00 -4°C° 0.1 mm 2 mps 621 mmHg 90%
    22:00 -4°C° 0 mm 2 mps 621 mmHg 89%
    23:00 -4°C° 0 mm 2 mps 621 mmHg 88%

    Day after tomorrow, 20 February, Tuesday

    Time Temperature Precipitation Wind Pressure Humidity
    00:00 -4°C° 0 mm 2 mps 621 mmHg 88%
    01:00 -4°C° 0 mm 2 mps 621 mmHg 87%
    02:00 -6°C° 0 mm 3 mps 620 mmHg 86%
    03:00 -6°C° 0 mm 3 mps 620 mmHg 86%
    04:00 -6°C° 0 mm 3 mps 620 mmHg 85%
    05:00 -6°C° 0 mm 3 mps 620 mmHg 84%
    06:00 -6°C° 0 mm 3 mps 620 mmHg 84%
    07:00 -5°C° 0 mm 3 mps 621 mmHg 80%
    08:00 -4°C° 0 mm 3 mps 621 mmHg 77%
    09:00 -2°C° 0 mm 3 mps 622 mmHg 73%
    10:00 -1°C° 0.1 mm 3 mps 622 mmHg 72%
    11:00 0°C° 0.1 mm 3 mps 622 mmHg 70%
    12:00 +1°C° 0.1 mm 3 mps 622 mmHg 69%
    13:00 +1°C° 0.2 mm 3 mps 621 mmHg 71%
    14:00 +1°C° 0.2 mm 3 mps 621 mmHg 72%
    15:00 +1°C° 0.2 mm 3 mps 620 mmHg 74%
    16:00 0°C° 0.5 mm 3 mps 620 mmHg 77%
    17:00 0°C° 0.5 mm 3 mps 619 mmHg 81%
    18:00 -1°C° 0.5 mm 3 mps 619 mmHg 84%
    19:00 -1°C° 0.7 mm 3 mps 619 mmHg 85%
    20:00 -1°C° 0.7 mm 3 mps 619 mmHg 85%
    21:00 -1°C° 0.7 mm 3 mps 619 mmHg 86%
    22:00 -2°C° 0.7 mm 3 mps 619 mmHg 86%
    23:00 -2°C° 0.7 mm 3 mps 618 mmHg 86%

    21 February, Wednesday

    Time Temperature Precipitation Wind Pressure Humidity
    00:00 -2°C° 0.7 mm 3 mps 618 mmHg 86%
    01:00 -2°C° 0.7 mm 3 mps 618 mmHg 87%
    02:00 -4°C° 0.7 mm 3 mps 617 mmHg 87%
    03:00 -4°C° 0.7 mm 3 mps 617 mmHg 87%
    04:00 -4°C° 0.4 mm 3 mps 617 mmHg 87%
    05:00 -4°C° 0.4 mm 3 mps 617 mmHg 87%
    06:00 -4°C° 0.4 mm 3 mps 617 mmHg 87%
    07:00 -4°C° 0.1 mm 3 mps 617 mmHg 85%
    08:00 -4°C° 0.1 mm 3 mps 618 mmHg 83%
    09:00 -4°C° 0.1 mm 3 mps 618 mmHg 81%
    10:00 -2°C° 0 mm 3 mps 618 mmHg 77%
    11:00 -1°C° 0 mm 3 mps 618 mmHg 72%
    12:00 -1°C° 0 mm 3 mps 618 mmHg 67%
    13:00 -1°C° 0 mm 3 mps 618 mmHg 66%
    14:00 -1°C° 0 mm 3 mps 618 mmHg 65%
    15:00 -1°C° 0 mm 3 mps 617 mmHg 64%
    16:00 -4°C° 0 mm 3 mps 617 mmHg 70%
    17:00 -5°C° 0 mm 3 mps 616 mmHg 75%
    18:00 -7°C° 0 mm 3 mps 616 mmHg 80%
    19:00 -7°C° 0 mm 3 mps 616 mmHg 80%
    20:00 -8°C° 0 mm 3 mps 616 mmHg 80%
    21:00 -8°C° 0 mm 3 mps 616 mmHg 80%
    22:00 -9°C° 0 mm 3 mps 615 mmHg 80%
    23:00 -9°C° 0 mm 3 mps 615 mmHg 79%

    22 February, Thursday

    Time Temperature Precipitation Wind Pressure Humidity
    00:00 -9°C° 0 mm 3 mps 615 mmHg 79%
    01:00 -9°C° 0 mm 3 mps 614 mmHg 79%
    02:00 -10°C° 0 mm 3 mps 613 mmHg 79%
    03:00 -10°C° 0 mm 3 mps 613 mmHg 79%
    04:00 -10°C° 0 mm 3 mps 612 mmHg 79%
    05:00 -10°C° 0 mm 3 mps 612 mmHg 78%
    06:00 -10°C° 0 mm 3 mps 612 mmHg 78%
    07:00 -10°C° 0.1 mm 3 mps 612 mmHg 74%
    08:00 -10°C° 0.1 mm 4 mps 612 mmHg 70%
    09:00 -9°C° 0.1 mm 4 mps 612 mmHg 66%
    10:00 -8°C° 0 mm 4 mps 612 mmHg 64%
    11:00 -7°C° 0 mm 4 mps 612 mmHg 61%
    12:00 -6°C° 0 mm 3 mps 613 mmHg 59%
    13:00 -6°C° 0 mm 3 mps 612 mmHg 59%
    14:00 -6°C° 0 mm 3 mps 612 mmHg 60%
    15:00 -6°C° 0 mm 3 mps 612 mmHg 61%
    16:00 -7°C° 0 mm 3 mps 612 mmHg 66%
    17:00 -7°C° 0 mm 2 mps 612 mmHg 70%
    18:00 -8°C° 0 mm 2 mps 611 mmHg 75%
    19:00 -9°C° 0 mm 2 mps 611 mmHg 76%
    20:00 -9°C° 0 mm 2 mps 611 mmHg 78%
    21:00 -10°C° 0 mm 2 mps 611 mmHg 79%
    22:00 -10°C° 0 mm 2 mps 611 mmHg 78%
    23:00 -10°C° 0 mm 2 mps 611 mmHg 77%

    23 February, Friday

    Time Temperature Precipitation Wind Pressure Humidity
    00:00 -12°C° 0 mm 2 mps 611 mmHg 76%
    01:00 -12°C° 0 mm 2 mps 611 mmHg 76%
    02:00 -12°C° 0 mm 2 mps 611 mmHg 76%
    03:00 -12°C° 0 mm 2 mps 611 mmHg 76%
    04:00 -12°C° 0 mm 2 mps 611 mmHg 76%
    05:00 -12°C° 0 mm 2 mps 611 mmHg 75%
    06:00 -13°C° 0 mm 2 mps 611 mmHg 75%
    07:00 -9°C° 0 mm 1 mps 612 mmHg 69%
    08:00 -7°C° 0 mm 1 mps 613 mmHg 62%
    09:00 -4°C° 0 mm 1 mps 614 mmHg 56%
    10:00 -3°C° 0 mm 1 mps 614 mmHg 54%
    11:00 -1°C° 0 mm 1 mps 615 mmHg 51%
    12:00 0°C° 0 mm 1 mps 615 mmHg 49%
    13:00 0°C° 0 mm 1 mps 615 mmHg 50%
    14:00 0°C° 0 mm 1 mps 615 mmHg 52%
    15:00 -2°C° 0 mm 2 mps 615 mmHg 53%
    16:00 -2°C° 0 mm 1 mps 614 mmHg 61%
    17:00 -4°C° 0 mm 1 mps 614 mmHg 69%
    18:00 -7°C° 0 mm 0 mps 613 mmHg 77%
    19:00 -7°C° 0 mm 1 mps 613 mmHg 77%
    20:00 -8°C° 0 mm 1 mps 614 mmHg 76%
    21:00 -8°C° 0 mm 1 mps 614 mmHg 76%
    22:00 -8°C° 0 mm 1 mps 614 mmHg 75%
    23:00 -8°C° 0 mm 1 mps 614 mmHg 75%
    Show more